User: anonymous   Login
Location: Waldport
(44.4270°N, 124.0680°W)
Time: 23:51:12
(UTC-07:00)
Language:

Cosmos 1570 Rocket - Orbit

View from above orbital plane
View from above orbital plane
View from above satellite
View from above satellite

Ground track
Ground track

The orbit data is extracted from the following two-line orbital elements,

1 15032U 84056B   15244.93757277 +.00000031 +00000-0 +19965-4 0  9995
2 15032 074.0713 192.1001 0017087 163.5805 196.5905 14.34591831632825
Epoch (UTC): 01 September 2015 22:30:06
Eccentricity: 0.0017087
inclination: 74.0713°
perigee height: 764 km
apogee height: 788 km
right ascension of ascending node: 192.1001°
argument of perigee: 163.5805°
revolutions per day: 14.34591831
mean anomaly at epoch: 196.5905°
orbit number at epoch: 63282

The dashed part of the orbit path shows where the satellite is in the earth's shadow,  

DLR